Time,TemperatureF,DewpointF,PressureIn,WindDirection,WindDirectionDegrees,WindSpeedMPH,WindSpeedGustMPH,Humidity,HourlyPrecipIn,Conditions,Clouds,dailyrainin,SoftwareType,DateUTC
2013-07-13 00:06:00,74.6,72.0,29.99,WNW,302,2.0,5.0,92,0.26,,,0.03,weatherlink.com 1.10,2013-07-13 04:06:00,
2013-07-13 00:21:00,74.6,72.0,29.99,WNW,302,0.0,1.0,92,0.28,,,0.05,weatherlink.com 1.10,2013-07-13 04:21:00,
2013-07-13 00:36:00,74.6,72.0,29.99,WNW,302,0.0,1.0,92,0.18,,,0.05,weatherlink.com 1.10,2013-07-13 04:36:00,
2013-07-13 00:51:00,74.7,72.0,29.99,NW,322,0.0,5.0,92,0.09,,,0.07,weatherlink.com 1.10,2013-07-13 04:51:00,
2013-07-13 01:06:00,74.6,72.0,29.99,NNW,344,0.0,2.0,92,0.04,,,0.08,weatherlink.com 1.10,2013-07-13 05:06:00,
2013-07-13 01:21:00,74.5,72.0,29.99,NNW,344,2.0,4.0,92,0.03,,,0.08,weatherlink.com 1.10,2013-07-13 05:21:00,
2013-07-13 01:36:00,74.6,72.0,29.99,NNW,344,0.0,2.0,92,0.03,,,0.08,weatherlink.com 1.10,2013-07-13 05:36:00,
2013-07-13 01:51:00,74.9,73.0,29.99,NNW,344,0.0,4.0,92,0.01,,,0.08,weatherlink.com 1.10,2013-07-13 05:51:00,
2013-07-13 02:06:00,74.7,72.0,29.99,NNW,344,0.0,3.0,92,0.00,,,0.08,weatherlink.com 1.10,2013-07-13 06:06:00,
2013-07-13 02:21:00,74.5,72.0,29.98,NNW,344,3.0,5.0,92,0.00,,,0.08,weatherlink.com 1.10,2013-07-13 06:21:00,
2013-07-13 02:36:00,74.4,72.0,29.98,NNW,344,2.0,5.0,92,0.00,,,0.08,weatherlink.com 1.10,2013-07-13 06:36:00,
2013-07-13 02:51:00,74.5,72.0,29.99,NNW,344,2.0,4.0,92,0.00,,,0.08,weatherlink.com 1.10,2013-07-13 06:51:00,
2013-07-13 03:06:00,74.7,72.0,29.99,NNW,344,0.0,4.0,92,0.00,,,0.08,weatherlink.com 1.10,2013-07-13 07:06:00,
2013-07-13 03:21:00,74.8,72.0,29.99,NNW,344,2.0,3.0,92,0.00,,,0.08,weatherlink.com 1.10,2013-07-13 07:21:00,
2013-07-13 03:36:00,74.9,73.0,29.99,NNW,344,0.0,3.0,92,0.00,,,0.08,weatherlink.com 1.10,2013-07-13 07:36:00,
2013-07-13 03:51:00,75.0,73.0,29.99,NNW,344,0.0,3.0,92,0.00,,,0.08,weatherlink.com 1.10,2013-07-13 07:51:00,
2013-07-13 04:06:00,75.3,73.0,29.99,NNW,344,0.0,3.0,92,0.00,,,0.08,weatherlink.com 1.10,2013-07-13 08:06:00,
2013-07-13 04:21:00,75.5,73.0,29.99,NNW,344,0.0,3.0,92,0.00,,,0.08,weatherlink.com 1.10,2013-07-13 08:21:00,
2013-07-13 04:36:00,75.5,73.0,29.99,NNW,344,0.0,4.0,92,0.00,,,0.08,weatherlink.com 1.10,2013-07-13 08:36:00,
2013-07-13 04:51:00,75.5,73.0,29.99,NNE,17,0.0,2.0,92,0.00,,,0.08,weatherlink.com 1.10,2013-07-13 08:51:00,
2013-07-13 05:06:00,75.5,73.0,30.00,NNE,17,0.0,3.0,92,0.00,,,0.08,weatherlink.com 1.10,2013-07-13 09:06:00,
2013-07-13 05:21:00,76.0,74.0,30.00,SSE,160,3.0,10.0,92,0.00,,,0.08,weatherlink.com 1.10,2013-07-13 09:21:00,
2013-07-13 05:36:00,75.6,73.0,30.00,SSE,148,3.0,10.0,92,0.01,,,0.09,weatherlink.com 1.10,2013-07-13 09:36:00,
2013-07-13 05:51:00,75.0,73.0,30.00,ESE,104,3.0,10.0,92,0.01,,,0.09,weatherlink.com 1.10,2013-07-13 09:51:00,
2013-07-13 06:06:00,74.9,72.0,30.01,SSE,154,7.0,12.0,91,0.01,,,0.09,weatherlink.com 1.10,2013-07-13 10:06:00,
2013-07-13 06:21:00,75.5,73.0,30.02,South,171,6.0,14.0,91,0.01,,,0.09,weatherlink.com 1.10,2013-07-13 10:21:00,
2013-07-13 06:36:00,75.8,73.0,30.02,SE,138,5.0,9.0,91,0.00,,,0.09,weatherlink.com 1.10,2013-07-13 10:36:00,
2013-07-13 06:51:00,76.1,73.0,30.02,SSE,165,7.0,14.0,91,0.00,,,0.09,weatherlink.com 1.10,2013-07-13 10:51:00,
2013-07-13 07:06:00,76.4,74.0,30.02,SSE,161,5.0,11.0,91,0.00,,,0.09,weatherlink.com 1.10,2013-07-13 11:06:00,
2013-07-13 07:21:00,76.3,74.0,30.03,SE,135,6.0,10.0,91,0.00,,,0.09,weatherlink.com 1.10,2013-07-13 11:21:00,
2013-07-13 07:36:00,76.5,74.0,30.04,SSE,148,3.0,11.0,91,0.00,,,0.09,weatherlink.com 1.10,2013-07-13 11:36:00,
2013-07-13 07:51:00,76.9,74.0,30.04,SSE,150,5.0,6.0,91,0.00,,,0.09,weatherlink.com 1.10,2013-07-13 11:51:00,
2013-07-13 08:06:00,77.1,74.0,30.05,SSE,150,2.0,6.0,90,0.00,,,0.09,weatherlink.com 1.10,2013-07-13 12:06:00,
2013-07-13 08:21:00,77.3,74.0,30.05,SSE,153,8.0,10.0,90,0.00,,,0.09,weatherlink.com 1.10,2013-07-13 12:21:00,
2013-07-13 08:36:00,79.0,76.0,30.06,SSE,159,4.0,9.0,90,0.00,,,0.09,weatherlink.com 1.10,2013-07-13 12:36:00,
2013-07-13 08:51:00,79.2,75.0,30.07,SSE,158,12.0,18.0,88,0.00,,,0.09,weatherlink.com 1.10,2013-07-13 12:51:00,
2013-07-13 09:06:00,77.2,74.0,30.07,SSE,153,3.0,14.0,89,0.00,,,0.09,weatherlink.com 1.10,2013-07-13 13:06:00,
2013-07-13 09:21:00,78.7,75.0,30.07,SSE,161,7.0,10.0,89,0.00,,,0.09,weatherlink.com 1.10,2013-07-13 13:21:00,
2013-07-13 09:36:00,80.4,76.0,30.07,SE,138,8.0,14.0,87,0.00,,,0.09,weatherlink.com 1.10,2013-07-13 13:36:00,
2013-07-13 09:51:00,80.0,76.0,30.08,South,185,5.0,17.0,86,0.00,,,0.09,weatherlink.com 1.10,2013-07-13 13:51:00,
2013-07-13 10:06:00,78.7,74.0,30.07,SSE,167,7.0,15.0,86,0.00,,,0.09,weatherlink.com 1.10,2013-07-13 14:06:00,
2013-07-13 10:21:00,79.7,76.0,30.07,South,169,7.0,15.0,87,0.00,,,0.09,weatherlink.com 1.10,2013-07-13 14:21:00,
2013-07-13 10:36:00,80.6,75.0,30.07,South,184,4.0,17.0,84,0.01,,,0.10,weatherlink.com 1.10,2013-07-13 14:36:00,
2013-07-13 10:51:00,81.5,76.0,30.08,SSW,193,4.0,15.0,83,0.01,,,0.10,weatherlink.com 1.10,2013-07-13 14:51:00,
2013-07-13 11:06:00,81.9,76.0,30.09,SE,143,9.0,17.0,83,0.01,,,0.10,weatherlink.com 1.10,2013-07-13 15:06:00,
2013-07-13 11:21:00,80.5,75.0,30.09,SE,128,9.0,17.0,82,0.12,,,0.21,weatherlink.com 1.10,2013-07-13 15:21:00,
2013-07-13 11:36:00,77.8,74.0,30.09,SE,126,7.0,11.0,89,0.14,,,0.24,weatherlink.com 1.10,2013-07-13 15:36:00,
2013-07-13 11:51:00,77.8,74.0,30.10,SSE,160,10.0,16.0,89,0.14,,,0.24,weatherlink.com 1.10,2013-07-13 15:51:00,
2013-07-13 12:06:00,80.2,76.0,30.09,SSE,150,9.0,14.0,88,0.14,,,0.24,weatherlink.com 1.10,2013-07-13 16:06:00,
2013-07-13 12:21:00,79.8,76.0,30.09,SSE,167,13.0,19.0,88,0.04,,,0.26,weatherlink.com 1.10,2013-07-13 16:21:00,
2013-07-13 12:36:00,81.6,77.0,30.09,South,187,6.0,18.0,86,0.02,,,0.26,weatherlink.com 1.10,2013-07-13 16:36:00,
2013-07-13 12:51:00,82.7,77.0,30.09,SSE,150,11.0,20.0,83,0.02,,,0.26,weatherlink.com 1.10,2013-07-13 16:51:00,
2013-07-13 13:06:00,83.0,77.0,30.10,ESE,115,12.0,19.0,82,0.02,,,0.26,weatherlink.com 1.10,2013-07-13 17:06:00,
2013-07-13 13:22:00,83.5,77.0,30.10,SSE,150,6.0,19.0,81,0.00,,,0.26,weatherlink.com 1.10,2013-07-13 17:22:00,
2013-07-13 13:37:00,84.0,77.0,30.10,SSW,200,9.0,18.0,80,0.00,,,0.26,weatherlink.com 1.10,2013-07-13 17:37:00,
2013-07-13 13:52:00,83.0,77.0,30.10,SE,131,12.0,17.0,82,0.00,,,0.26,weatherlink.com 1.10,2013-07-13 17:52:00,
2013-07-13 14:07:00,83.0,77.0,30.09,SSE,148,12.0,20.0,82,0.00,,,0.26,weatherlink.com 1.10,2013-07-13 18:07:00,
2013-07-13 14:22:00,80.2,76.0,30.09,SSE,151,9.0,14.0,88,0.04,,,0.30,weatherlink.com 1.10,2013-07-13 18:22:00,
2013-07-13 14:37:00,80.9,77.0,30.09,SE,142,10.0,20.0,87,0.04,,,0.30,weatherlink.com 1.10,2013-07-13 18:37:00,
2013-07-13 14:52:00,81.9,77.0,30.09,South,171,8.0,23.0,85,0.04,,,0.30,weatherlink.com 1.10,2013-07-13 18:52:00,
2013-07-13 15:07:00,81.6,77.0,30.09,SSE,163,6.0,21.0,85,0.04,,,0.30,weatherlink.com 1.10,2013-07-13 19:07:00,
2013-07-13 15:22:00,83.1,77.0,30.10,SSE,153,11.0,21.0,82,0.00,,,0.30,weatherlink.com 1.10,2013-07-13 19:22:00,
2013-07-13 15:37:00,77.3,73.0,30.11,SSE,165,6.0,16.0,87,0.10,,,0.40,weatherlink.com 1.10,2013-07-13 19:37:00,
2013-07-13 15:52:00,78.3,75.0,30.10,SE,135,9.0,15.0,90,0.10,,,0.40,weatherlink.com 1.10,2013-07-13 19:52:00,
2013-07-13 16:07:00,80.1,76.0,30.10,SE,146,7.0,18.0,88,0.10,,,0.40,weatherlink.com 1.10,2013-07-13 20:07:00,
2013-07-13 16:22:00,81.3,76.0,30.09,South,188,14.0,21.0,84,0.10,,,0.40,weatherlink.com 1.10,2013-07-13 20:22:00,
2013-07-13 16:37:00,82.0,76.0,30.09,SSE,148,9.0,23.0,81,0.00,,,0.40,weatherlink.com 1.10,2013-07-13 20:37:00,
2013-07-13 16:52:00,82.4,76.0,30.09,SSW,192,11.0,21.0,81,0.00,,,0.40,weatherlink.com 1.10,2013-07-13 20:52:00,
2013-07-13 17:07:00,82.3,76.0,30.10,SSE,148,15.0,22.0,80,0.00,,,0.40,weatherlink.com 1.10,2013-07-13 21:07:00,
2013-07-13 17:22:00,82.1,75.0,30.11,SSE,159,11.0,23.0,80,0.00,,,0.40,weatherlink.com 1.10,2013-07-13 21:22:00,
2013-07-13 17:37:00,82.1,76.0,30.11,SSE,167,13.0,23.0,81,0.00,,,0.40,weatherlink.com 1.10,2013-07-13 21:37:00,
2013-07-13 17:52:00,82.0,76.0,30.11,ESE,119,15.0,24.0,81,0.00,,,0.40,weatherlink.com 1.10,2013-07-13 21:52:00,
2013-07-13 18:07:00,81.6,76.0,30.10,South,188,10.0,23.0,82,0.00,,,0.40,weatherlink.com 1.10,2013-07-13 22:07:00,
2013-07-13 18:22:00,81.3,75.0,30.11,SSE,165,8.0,20.0,81,0.00,,,0.40,weatherlink.com 1.10,2013-07-13 22:22:00,
2013-07-13 18:37:00,81.2,75.0,30.12,SSE,159,14.0,22.0,82,0.00,,,0.40,weatherlink.com 1.10,2013-07-13 22:37:00,
2013-07-13 18:52:00,81.1,75.0,30.13,SSE,149,14.0,22.0,82,0.00,,,0.40,weatherlink.com 1.10,2013-07-13 22:52:00,
2013-07-13 19:07:00,81.2,76.0,30.13,SE,138,9.0,18.0,83,0.00,,,0.40,weatherlink.com 1.10,2013-07-13 23:07:00,
2013-07-13 19:22:00,81.0,75.0,30.13,SSE,162,8.0,18.0,83,0.00,,,0.40,weatherlink.com 1.10,2013-07-13 23:22:00,
2013-07-13 19:37:00,80.5,73.0,30.13,SSE,156,13.0,19.0,77,0.00,,,0.40,weatherlink.com 1.10,2013-07-13 23:37:00,
2013-07-13 19:52:00,80.4,73.0,30.13,SSE,163,9.0,17.0,79,0.00,,,0.40,weatherlink.com 1.10,2013-07-13 23:52:00,
2013-07-13 20:07:00,80.3,74.0,30.14,South,169,8.0,15.0,82,0.00,,,0.40,weatherlink.com 1.10,2013-07-14 00:07:00,
2013-07-13 20:22:00,80.0,74.0,30.14,South,190,7.0,21.0,83,0.00,,,0.40,weatherlink.com 1.10,2013-07-14 00:22:00,
2013-07-13 20:37:00,79.9,75.0,30.14,SE,136,6.0,14.0,84,0.00,,,0.40,weatherlink.com 1.10,2013-07-14 00:37:00,
2013-07-13 20:52:00,79.8,75.0,30.14,ESE,121,9.0,15.0,84,0.00,,,0.40,weatherlink.com 1.10,2013-07-14 00:52:00,
2013-07-13 21:07:00,79.7,74.0,30.15,SSE,155,5.0,15.0,82,0.00,,,0.40,weatherlink.com 1.10,2013-07-14 01:07:00,
2013-07-13 21:22:00,79.6,74.0,30.15,South,172,7.0,12.0,83,0.00,,,0.40,weatherlink.com 1.10,2013-07-14 01:22:00,
2013-07-13 21:37:00,79.6,74.0,30.15,SSE,149,5.0,14.0,82,0.00,,,0.40,weatherlink.com 1.10,2013-07-14 01:37:00,
2013-07-13 21:52:00,79.6,74.0,30.16,SSE,158,6.0,10.0,83,0.00,,,0.40,weatherlink.com 1.10,2013-07-14 01:52:00,
2013-07-13 22:07:00,79.5,74.0,30.16,SSE,147,7.0,13.0,82,0.00,,,0.40,weatherlink.com 1.10,2013-07-14 02:07:00,
2013-07-13 22:22:00,79.6,74.0,30.17,ESE,118,8.0,12.0,83,0.00,,,0.40,weatherlink.com 1.10,2013-07-14 02:22:00,
2013-07-13 22:37:00,79.5,74.0,30.18,SE,126,9.0,11.0,83,0.00,,,0.40,weatherlink.com 1.10,2013-07-14 02:37:00,
2013-07-13 22:52:00,79.6,74.0,30.18,South,179,4.0,12.0,83,0.00,,,0.40,weatherlink.com 1.10,2013-07-14 02:52:00,
2013-07-13 23:07:00,79.6,74.0,30.18,SSE,157,5.0,11.0,83,0.00,,,0.40,weatherlink.com 1.10,2013-07-14 03:07:00,
2013-07-13 23:22:00,79.5,74.0,30.18,SE,141,4.0,10.0,83,0.00,,,0.40,weatherlink.com 1.10,2013-07-14 03:22:00,
2013-07-13 23:37:00,79.4,74.0,30.18,SSE,152,3.0,11.0,83,0.00,,,0.40,weatherlink.com 1.10,2013-07-14 03:37:00,
2013-07-13 23:52:00,79.5,74.0,30.18,SSE,152,4.0,11.0,84,0.00,,,0.40,weatherlink.com 1.10,2013-07-14 03:52:00,